44P/Reinmuth 2 (2022)

Japanese version
Home page
Updated on September 10, 2022

---------------------------------------------------------------------

* Profile

* Pictures

* Orbital Elements

Epoch 2022 Aug. 9.0 TT = JDT 2459800.5
T 2022 Apr. 23.18646 TT                                 Rudenko
q   2.1125681            (2000.0)            P               Q
n   0.13895041     Peri.   58.07397     +0.95942530     +0.26419365
a   3.6917264      Node   286.44756     -0.28069800     +0.86187233
e   0.4277560      Incl.    5.89560     -0.02667820     +0.43287158
P   7.09
From 927 observations 2008 July 2-2022 June 6, mean residual 0".7.
     Nongravitational parameters A1 = +0.11, A2 = -0.0649.

* Finding Charts

* Magnitudes Graph

        m1 = 10.6 + 5 log d + 13.0 log r  [ ,0]  (             - 2022 Apr. 23)
        m1 = 11.6 + 5 log d + 10.0 log r  [0, ]  (2022 Apr. 23 -             )

---------------------------------------------------------------------

The orbital elements are published on M.P.E.C. 2022-L66.
The charts are made with StellaNavigator Ver.10 (AstroArts).
The magnitudes graphs are made with Comet for Windows.

---------------------------------------------------------------------

Copyright(C) Seiichi Yoshida (comet@aerith.net). All rights reserved.